Time,TemperatureF,DewpointF,PressureIn,WindDirection,WindDirectionDegrees,WindSpeedMPH,WindSpeedGustMPH,Humidity,HourlyPrecipIn,Conditions,Clouds,dailyrainin,SoftwareType,DateUTC
2013-05-13 00:03:00,45.0,29.0,30.01,South,174,0.0,7.0,54,0.00,,,0.00,,2013-05-13 04:03:00,
2013-05-13 00:12:00,45.0,29.0,30.01,South,174,0.0,7.0,54,0.00,,,0.00,,2013-05-13 04:12:00,
2013-05-13 00:23:00,45.0,29.0,30.01,South,173,0.0,10.0,54,0.00,,,0.00,,2013-05-13 04:23:00,
2013-05-13 00:33:00,44.0,29.0,30.01,South,173,2.0,7.0,55,0.00,,,0.00,,2013-05-13 04:33:00,
2013-05-13 00:42:00,44.0,29.0,30.01,South,173,2.0,7.0,55,0.00,,,0.00,,2013-05-13 04:42:00,
2013-05-13 00:53:00,44.0,29.0,30.01,South,174,2.0,8.0,55,0.00,,,0.00,,2013-05-13 04:53:00,
2013-05-13 01:02:00,44.0,28.0,30.01,South,174,3.0,10.0,54,0.00,,,0.00,,2013-05-13 05:02:00,
2013-05-13 01:12:00,44.0,28.0,30.01,South,174,3.0,10.0,54,0.00,,,0.00,,2013-05-13 05:12:00,
2013-05-13 01:22:00,44.0,29.0,30.01,South,173,3.0,12.0,55,0.00,,,0.00,,2013-05-13 05:22:00,
2013-05-13 01:32:00,44.0,29.0,30.01,South,172,2.0,8.0,55,0.00,,,0.00,,2013-05-13 05:32:00,
2013-05-13 01:42:00,44.0,29.0,30.01,South,172,2.0,8.0,55,0.00,,,0.00,,2013-05-13 05:42:00,
2013-05-13 01:52:00,43.0,28.0,30.01,South,169,1.0,9.0,55,0.00,,,0.00,,2013-05-13 05:52:00,
2013-05-13 02:01:00,42.0,28.0,30.01,South,169,0.0,6.0,58,0.00,,,0.00,,2013-05-13 06:01:00,
2013-05-13 02:11:00,42.0,28.0,30.01,South,169,0.0,6.0,58,0.00,,,0.00,,2013-05-13 06:11:00,
2013-05-13 02:21:00,42.0,28.0,30.02,South,170,0.0,7.0,58,0.00,,,0.00,,2013-05-13 06:21:00,
2013-05-13 02:32:00,42.0,29.0,30.01,South,170,1.0,5.0,60,0.00,,,0.00,,2013-05-13 06:32:00,
2013-05-13 02:42:00,42.0,29.0,30.01,South,170,1.0,5.0,60,0.00,,,0.00,,2013-05-13 06:42:00,
2013-05-13 02:52:00,41.0,29.0,30.01,South,169,0.0,4.0,61,0.00,,,0.00,,2013-05-13 06:52:00,
2013-05-13 03:01:00,41.0,29.0,30.01,South,172,0.0,4.0,61,0.00,,,0.00,,2013-05-13 07:01:00,
2013-05-13 03:11:00,41.0,29.0,30.01,South,172,0.0,4.0,61,0.00,,,0.00,,2013-05-13 07:11:00,
2013-05-13 03:22:00,41.0,29.0,30.01,South,172,0.0,4.0,62,0.00,,,0.00,,2013-05-13 07:22:00,
2013-05-13 03:32:00,41.0,29.0,30.01,South,172,0.0,4.0,62,0.00,,,0.00,,2013-05-13 07:32:00,
2013-05-13 03:42:00,41.0,29.0,30.01,South,172,0.0,4.0,62,0.00,,,0.00,,2013-05-13 07:42:00,
2013-05-13 03:52:00,40.0,28.0,30.02,South,172,1.0,6.0,63,0.00,,,0.00,,2013-05-13 07:52:00,
2013-05-13 04:02:00,40.0,29.0,30.02,South,171,0.0,5.0,64,0.00,,,0.00,,2013-05-13 08:02:00,
2013-05-13 04:11:00,40.0,29.0,30.02,South,171,0.0,5.0,64,0.00,,,0.00,,2013-05-13 08:11:00,
2013-05-13 04:21:00,40.0,29.0,30.02,South,170,0.0,7.0,64,0.00,,,0.00,,2013-05-13 08:21:00,
2013-05-13 04:32:00,40.0,29.0,30.02,South,170,1.0,6.0,64,0.00,,,0.00,,2013-05-13 08:32:00,
2013-05-13 04:42:00,40.0,29.0,30.02,South,170,1.0,6.0,64,0.00,,,0.00,,2013-05-13 08:42:00,
2013-05-13 04:52:00,40.0,29.0,30.03,South,171,1.0,6.0,65,0.00,,,0.00,,2013-05-13 08:52:00,
2013-05-13 05:01:00,39.0,28.0,30.03,South,170,1.0,4.0,65,0.00,,,0.00,,2013-05-13 09:01:00,
2013-05-13 05:11:00,39.0,28.0,30.03,South,170,1.0,4.0,65,0.00,,,0.00,,2013-05-13 09:11:00,
2013-05-13 05:21:00,39.0,28.0,30.03,South,172,1.0,6.0,65,0.00,,,0.00,,2013-05-13 09:21:00,
2013-05-13 05:33:00,39.0,28.0,30.03,South,172,0.0,4.0,65,0.00,,,0.00,,2013-05-13 09:33:00,
2013-05-13 05:42:00,39.0,28.0,30.03,South,172,0.0,4.0,65,0.00,,,0.00,,2013-05-13 09:42:00,
2013-05-13 05:52:00,39.0,29.0,30.03,South,172,0.0,0.0,66,0.00,,,0.00,,2013-05-13 09:52:00,
2013-05-13 06:03:00,39.0,28.0,30.04,South,172,0.0,2.0,65,0.00,,,0.00,,2013-05-13 10:03:00,
2013-05-13 06:12:00,39.0,28.0,30.04,South,172,0.0,2.0,65,0.00,,,0.00,,2013-05-13 10:12:00,
2013-05-13 06:22:00,39.0,29.0,30.04,South,172,1.0,4.0,66,0.00,,,0.00,,2013-05-13 10:22:00,
2013-05-13 06:33:00,39.0,29.0,30.05,South,172,0.0,3.0,66,0.00,,,0.00,,2013-05-13 10:33:00,
2013-05-13 06:42:00,39.0,29.0,30.05,South,172,0.0,3.0,66,0.00,,,0.00,,2013-05-13 10:42:00,
2013-05-13 06:52:00,39.0,29.0,30.05,South,172,0.0,2.0,66,0.00,,,0.00,,2013-05-13 10:52:00,
2013-05-13 07:02:00,40.0,29.0,30.06,South,172,1.0,5.0,65,0.00,,,0.00,,2013-05-13 11:02:00,
2013-05-13 07:12:00,40.0,29.0,30.06,South,172,1.0,5.0,65,0.00,,,0.00,,2013-05-13 11:12:00,
2013-05-13 07:22:00,42.0,30.0,30.06,South,170,0.0,4.0,63,0.00,,,0.00,,2013-05-13 11:22:00,
2013-05-13 07:32:00,41.0,29.0,30.08,South,170,0.0,5.0,62,0.00,,,0.00,,2013-05-13 11:32:00,
2013-05-13 07:42:00,41.0,29.0,30.08,South,170,0.0,5.0,62,0.00,,,0.00,,2013-05-13 11:42:00,
2013-05-13 07:52:00,42.0,30.0,30.08,South,170,0.0,4.0,63,0.00,,,0.00,,2013-05-13 11:52:00,
2013-05-13 08:01:00,43.0,30.0,30.08,South,170,0.0,4.0,60,0.00,,,0.00,,2013-05-13 12:01:00,
2013-05-13 08:12:00,43.0,30.0,30.08,South,170,0.0,4.0,60,0.00,,,0.00,,2013-05-13 12:12:00,
2013-05-13 08:21:00,44.0,30.0,30.08,South,170,1.0,4.0,58,0.00,,,0.00,,2013-05-13 12:21:00,
2013-05-13 08:32:00,45.0,31.0,30.09,South,170,0.0,5.0,57,0.00,,,0.00,,2013-05-13 12:32:00,
2013-05-13 08:42:00,45.0,31.0,30.09,South,170,0.0,5.0,57,0.00,,,0.00,,2013-05-13 12:42:00,
2013-05-13 08:52:00,45.0,31.0,30.09,South,170,2.0,5.0,57,0.00,,,0.00,,2013-05-13 12:52:00,
2013-05-13 09:01:00,45.0,31.0,30.09,South,170,1.0,6.0,57,0.00,,,0.00,,2013-05-13 13:01:00,
2013-05-13 09:11:00,45.0,31.0,30.09,South,170,1.0,6.0,57,0.00,,,0.00,,2013-05-13 13:11:00,
2013-05-13 09:21:00,46.0,30.0,30.09,South,172,3.0,7.0,54,0.00,,,0.00,,2013-05-13 13:21:00,
2013-05-13 09:32:00,47.0,31.0,30.10,South,169,1.0,5.0,53,0.00,,,0.00,,2013-05-13 13:32:00,
2013-05-13 09:42:00,47.0,31.0,30.10,South,169,1.0,5.0,53,0.00,,,0.00,,2013-05-13 13:42:00,
2013-05-13 09:52:00,48.0,32.0,30.10,South,170,1.0,5.0,53,0.00,,,0.00,,2013-05-13 13:52:00,
2013-05-13 10:02:00,50.0,30.0,30.10,South,172,0.0,6.0,46,0.00,,,0.00,,2013-05-13 14:02:00,
2013-05-13 10:11:00,50.0,30.0,30.10,South,172,0.0,6.0,46,0.00,,,0.00,,2013-05-13 14:11:00,
2013-05-13 10:22:00,50.0,29.0,30.10,South,172,2.0,6.0,45,0.00,,,0.00,,2013-05-13 14:22:00,
2013-05-13 10:32:00,51.0,29.0,30.11,South,172,1.0,6.0,42,0.00,,,0.00,,2013-05-13 14:32:00,
2013-05-13 10:41:00,51.0,29.0,30.11,South,172,1.0,6.0,42,0.00,,,0.00,,2013-05-13 14:41:00,
2013-05-13 10:52:00,52.0,30.0,30.11,South,174,0.0,7.0,42,0.00,,,0.00,,2013-05-13 14:52:00,
2013-05-13 11:01:00,51.0,29.0,30.11,South,172,3.0,10.0,43,0.00,,,0.00,,2013-05-13 15:01:00,
2013-05-13 11:11:00,51.0,29.0,30.11,South,172,3.0,10.0,43,0.00,,,0.00,,2013-05-13 15:11:00,
2013-05-13 11:21:00,50.0,28.0,30.11,South,169,3.0,10.0,42,0.00,,,0.00,,2013-05-13 15:21:00,
2013-05-13 11:32:00,52.0,31.0,30.11,South,169,1.0,6.0,44,0.00,,,0.00,,2013-05-13 15:32:00,
2013-05-13 11:42:00,52.0,31.0,30.11,South,169,1.0,6.0,44,0.00,,,0.00,,2013-05-13 15:42:00,
2013-05-13 11:53:00,53.0,31.0,30.11,South,170,2.0,10.0,42,0.00,,,0.00,,2013-05-13 15:53:00,
2013-05-13 12:03:00,53.0,29.0,30.11,South,178,0.0,8.0,40,0.00,,,0.00,,2013-05-13 16:03:00,
2013-05-13 12:12:00,53.0,29.0,30.11,South,178,0.0,8.0,40,0.00,,,0.00,,2013-05-13 16:12:00,
2013-05-13 12:21:00,53.0,29.0,30.11,South,173,2.0,13.0,39,0.00,,,0.00,,2013-05-13 16:21:00,
2013-05-13 12:33:00,54.0,31.0,30.11,South,172,2.0,13.0,41,0.00,,,0.00,,2013-05-13 16:33:00,
2013-05-13 12:42:00,55.0,31.0,30.11,South,173,1.0,5.0,39,0.00,,,0.00,,2013-05-13 16:42:00,
2013-05-13 12:53:00,55.0,31.0,30.11,South,173,1.0,5.0,39,0.00,,,0.00,,2013-05-13 16:53:00,
2013-05-13 13:02:00,56.0,33.0,30.10,South,174,0.0,9.0,42,0.00,,,0.00,,2013-05-13 17:02:00,
2013-05-13 13:12:00,56.0,33.0,30.10,South,174,0.0,9.0,42,0.00,,,0.00,,2013-05-13 17:12:00,
2013-05-13 13:21:00,57.0,28.0,30.10,South,174,2.0,7.0,33,0.00,,,0.00,,2013-05-13 17:21:00,
2013-05-13 13:32:00,57.0,28.0,30.09,South,169,2.0,7.0,33,0.00,,,0.00,,2013-05-13 17:32:00,
2013-05-13 13:42:00,57.0,28.0,30.09,South,169,2.0,7.0,33,0.00,,,0.00,,2013-05-13 17:42:00,
2013-05-13 13:54:00,57.0,30.0,30.09,South,172,2.0,10.0,36,0.00,,,0.00,,2013-05-13 17:54:00,
2013-05-13 14:03:00,57.0,28.0,30.09,South,174,1.0,12.0,33,0.00,,,0.00,,2013-05-13 18:03:00,
2013-05-13 14:13:00,57.0,28.0,30.09,South,174,1.0,12.0,33,0.00,,,0.00,,2013-05-13 18:13:00,
2013-05-13 14:23:00,58.0,31.0,30.08,South,173,2.0,11.0,35,0.00,,,0.00,,2013-05-13 18:23:00,
2013-05-13 14:32:00,58.0,29.0,30.08,South,170,0.0,8.0,33,0.00,,,0.00,,2013-05-13 18:32:00,
2013-05-13 14:42:00,57.0,29.0,30.07,SSE,167,1.0,13.0,34,0.00,,,0.00,,2013-05-13 18:42:00,
2013-05-13 14:52:00,57.0,29.0,30.07,SSE,167,1.0,13.0,34,0.00,,,0.00,,2013-05-13 18:52:00,
2013-05-13 15:01:00,57.0,29.0,30.08,South,169,3.0,13.0,34,0.00,,,0.00,,2013-05-13 19:01:00,
2013-05-13 15:11:00,57.0,29.0,30.08,South,169,3.0,13.0,34,0.00,,,0.00,,2013-05-13 19:11:00,
2013-05-13 15:22:00,58.0,28.0,30.07,South,173,1.0,8.0,31,0.00,,,0.00,,2013-05-13 19:22:00,
2013-05-13 15:32:00,59.0,30.0,30.07,SSE,167,2.0,10.0,33,0.00,,,0.00,,2013-05-13 19:32:00,
2013-05-13 15:44:00,59.0,30.0,30.07,SSE,167,2.0,10.0,33,0.00,,,0.00,,2013-05-13 19:44:00,
2013-05-13 15:53:00,58.0,29.0,30.06,SSE,167,3.0,13.0,33,0.00,,,0.00,,2013-05-13 19:53:00,
2013-05-13 16:02:00,57.0,28.0,30.06,South,169,4.0,12.0,33,0.00,,,0.00,,2013-05-13 20:02:00,
2013-05-13 16:11:00,57.0,28.0,30.06,South,169,4.0,12.0,33,0.00,,,0.00,,2013-05-13 20:11:00,
2013-05-13 16:23:00,57.0,27.0,30.06,South,169,3.0,11.0,32,0.00,,,0.00,,2013-05-13 20:23:00,
2013-05-13 16:34:00,57.0,29.0,30.06,South,170,2.0,6.0,34,0.00,,,0.00,,2013-05-13 20:34:00,
2013-05-13 16:44:00,57.0,29.0,30.06,South,170,2.0,6.0,34,0.00,,,0.00,,2013-05-13 20:44:00,
2013-05-13 16:53:00,57.0,29.0,30.06,SSE,167,2.0,13.0,34,0.00,,,0.00,,2013-05-13 20:53:00,
2013-05-13 17:03:00,57.0,28.0,30.06,SSE,158,2.0,10.0,33,0.00,,,0.00,,2013-05-13 21:03:00,
2013-05-13 17:14:00,57.0,28.0,30.06,SSE,158,2.0,10.0,33,0.00,,,0.00,,2013-05-13 21:14:00,
2013-05-13 17:23:00,56.0,29.0,30.06,South,169,3.0,16.0,35,0.00,,,0.00,,2013-05-13 21:23:00,
2013-05-13 17:33:00,56.0,28.0,30.05,South,169,3.0,10.0,34,0.00,,,0.00,,2013-05-13 21:33:00,
2013-05-13 17:43:00,56.0,28.0,30.05,South,169,3.0,10.0,34,0.00,,,0.00,,2013-05-13 21:43:00,
2013-05-13 17:53:00,55.0,29.0,30.06,South,172,3.0,15.0,36,0.00,,,0.00,,2013-05-13 21:53:00,
2013-05-13 18:02:00,55.0,29.0,30.06,South,173,2.0,6.0,37,0.00,,,0.00,,2013-05-13 22:02:00,
2013-05-13 18:12:00,55.0,29.0,30.06,South,173,2.0,6.0,37,0.00,,,0.00,,2013-05-13 22:12:00,
2013-05-13 18:23:00,55.0,29.0,30.06,South,172,1.0,9.0,37,0.00,,,0.00,,2013-05-13 22:23:00,
2013-05-13 18:32:00,54.0,28.0,30.06,South,172,2.0,11.0,36,0.00,,,0.00,,2013-05-13 22:32:00,
2013-05-13 18:43:00,53.0,29.0,30.06,South,173,1.0,8.0,39,0.00,,,0.00,,2013-05-13 22:43:00,
2013-05-13 18:52:00,53.0,29.0,30.06,South,173,1.0,8.0,39,0.00,,,0.00,,2013-05-13 22:52:00,
2013-05-13 19:02:00,51.0,29.0,30.06,South,169,1.0,9.0,42,0.00,,,0.00,,2013-05-13 23:02:00,
2013-05-13 19:13:00,51.0,29.0,30.06,South,169,1.0,9.0,42,0.00,,,0.00,,2013-05-13 23:13:00,
2013-05-13 19:23:00,51.0,29.0,30.06,South,169,1.0,9.0,42,0.00,,,0.00,,2013-05-13 23:23:00,
2013-05-13 19:34:00,50.0,29.0,30.06,South,172,2.0,16.0,44,0.00,,,0.00,,2013-05-13 23:34:00,
2013-05-13 19:42:00,50.0,29.0,30.06,South,172,2.0,16.0,44,0.00,,,0.00,,2013-05-13 23:42:00,
2013-05-13 19:54:00,50.0,31.0,30.06,South,173,0.0,9.0,47,0.00,,,0.00,,2013-05-13 23:54:00,
2013-05-13 20:02:00,50.0,30.0,30.06,South,173,2.0,13.0,46,0.00,,,0.00,,2013-05-14 00:02:00,
2013-05-13 20:13:00,50.0,30.0,30.06,South,173,2.0,13.0,46,0.00,,,0.00,,2013-05-14 00:13:00,
2013-05-13 20:22:00,49.0,30.0,30.06,South,170,0.0,5.0,48,0.00,,,0.00,,2013-05-14 00:22:00,
2013-05-13 20:32:00,49.0,30.0,30.07,South,169,0.0,7.0,47,0.00,,,0.00,,2013-05-14 00:32:00,
2013-05-13 20:42:00,49.0,30.0,30.07,South,169,0.0,7.0,47,0.00,,,0.00,,2013-05-14 00:42:00,
2013-05-13 20:52:00,48.0,30.0,30.07,SSE,168,0.0,2.0,50,0.00,,,0.00,,2013-05-14 00:52:00,
2013-05-13 21:02:00,48.0,30.0,30.08,South,172,1.0,10.0,49,0.00,,,0.00,,2013-05-14 01:02:00,
2013-05-13 21:11:00,48.0,30.0,30.08,South,172,1.0,10.0,49,0.00,,,0.00,,2013-05-14 01:11:00,
2013-05-13 21:21:00,48.0,30.0,30.08,South,172,1.0,7.0,49,0.00,,,0.00,,2013-05-14 01:21:00,
2013-05-13 21:32:00,48.0,30.0,30.09,South,172,1.0,11.0,50,0.00,,,0.00,,2013-05-14 01:32:00,
2013-05-13 21:43:00,48.0,30.0,30.09,South,172,1.0,11.0,50,0.00,,,0.00,,2013-05-14 01:43:00,
2013-05-13 21:53:00,48.0,31.0,30.10,South,172,0.0,6.0,51,0.00,,,0.00,,2013-05-14 01:53:00,
2013-05-13 22:02:00,47.0,30.0,30.10,South,174,0.0,7.0,51,0.00,,,0.00,,2013-05-14 02:02:00,
2013-05-13 22:12:00,47.0,30.0,30.10,South,174,0.0,7.0,51,0.00,,,0.00,,2013-05-14 02:12:00,
2013-05-13 22:22:00,47.0,30.0,30.11,South,173,0.0,7.0,51,0.00,,,0.00,,2013-05-14 02:22:00,
2013-05-13 22:32:00,47.0,30.0,30.11,South,172,0.0,4.0,51,0.00,,,0.00,,2013-05-14 02:32:00,
2013-05-13 22:42:00,47.0,30.0,30.11,South,172,0.0,4.0,51,0.00,,,0.00,,2013-05-14 02:42:00,
2013-05-13 22:52:00,47.0,29.0,30.12,South,170,0.0,6.0,50,0.00,,,0.00,,2013-05-14 02:52:00,
2013-05-13 23:01:00,46.0,29.0,30.12,South,170,0.0,3.0,51,0.00,,,0.00,,2013-05-14 03:01:00,
2013-05-13 23:11:00,46.0,29.0,30.12,South,170,0.0,3.0,51,0.00,,,0.00,,2013-05-14 03:11:00,
2013-05-13 23:21:00,46.0,28.0,30.13,South,170,0.0,3.0,50,0.00,,,0.00,,2013-05-14 03:21:00,
2013-05-13 23:33:00,46.0,29.0,30.13,South,173,0.0,5.0,51,0.00,,,0.00,,2013-05-14 03:33:00,
2013-05-13 23:42:00,46.0,29.0,30.13,South,173,0.0,5.0,51,0.00,,,0.00,,2013-05-14 03:42:00,
2013-05-13 23:53:00,46.0,28.0,30.13,South,173,0.0,3.0,50,0.00,,,0.00,,2013-05-14 03:53:00,